{"data":{"norad_id":52479,"intl_designator":"2022-049AE","name":"STARLINK-3878","alt_names":[],"object_type":"PAYLOAD","status":"ACTIVE","operator":null,"country":"US","launch_date":"2022-05-06","launch_site_code":"AFETR","launch_vehicle":null,"mission":null,"orbit_class":"UNKNOWN","rcs_meters":null,"size_class":null,"mass_kg":null,"dimensions":null,"purposes":["comms"],"wikipedia_slug":null,"has_3d_model":false,"image_url":null,"decayed_at":null,"tle_current":{"epoch":"2026-09-19T13:29:42.123840Z","epoch_age_seconds":144298,"freshness":"FRESH","line1":"1 52479U 22049AE  26262.56229310  .00000006  00000+0  11957-4 0  9992","line2":"2 52479  53.1605 254.2490 0001158  87.5503 272.5631 15.31697565242954","mean_motion":15.31697565,"eccentricity":0.0001158,"inclination_deg":53.1605,"raan_deg":254.249,"arg_perigee_deg":87.5503,"mean_anomaly_deg":272.5631,"bstar":1.1957e-5,"rev_number":24295,"period_min":94.01333741756,"perigee_km":469.95415304696,"apogee_km":471.54035464015,"semimajor_km":6848.8842538436,"source":"CELESTRAK","updated_at":"2026-09-20T09:00:40.053082Z"}}}